Location: Edisto_Beach
(32.4790°N, 80.3350°W)
Time: 03:02:17
(UTC-04:00)

Amateur Radio Satellites - All Passes

Search period start: 26 September 2016 02:32
Search period end: 27 September 2016 02:32
Location: Edisto_Beach, 32.4790°N, 80.3350°W

Satellite Date Start Highest point End Downlink Frequencies (MHz)
Time Altitude Azimuth
SRMSAT 26 Sep 02:39:07 02:43:41 23° 183° (S) 02:48:16 437.500
Oscar 19 26 Sep 02:39:36 02:44:44 68° 102° (ESE) 02:49:50 437.125/150
JAS-2 26 Sep 02:41:55 02:48:03 26° 296° (WNW) 02:54:00 435.910
YUBILEINY 26 Sep 03:04:15 03:12:01 36° 87° (E) 03:19:45 435.215
ITUPSAT 1 26 Sep 03:09:01 03:13:46 82° 76° (ENE) 03:18:32 437.325
BEESAT 3 26 Sep 03:16:17 03:17:37 11° 310° (NW) 03:18:58 437.485
Gurwin Techsat 1B 26 Sep 03:19:09 03:24:29 77° 103° (ESE) 03:29:47 435.225
SWISSCUBE 26 Sep 03:23:29 03:28:09 60° 259° (W) 03:32:52 437.505
ITAMSAT 1 26 Sep 03:28:35 03:32:39 23° 96° (E) 03:36:41 435.822/435.867
Cosmos 2504 26 Sep 03:30:44 03:34:31 15° 83° (E) 03:38:13 435.465 / 435.565
BEESAT 26 Sep 03:36:51 03:41:25 47° 260° (W) 03:46:00 436.000
MOZHAYETS 4 26 Sep 03:46:14 03:50:10 29° 72° (ENE) 03:54:07
Cosmos 2491 26 Sep 04:05:58 04:14:14 46° 271° (W) 04:22:27 435.465 / 435.565
ISS 26 Sep 04:11:20 04:13:55 21° 36° (NE) 04:16:31 145.825
AO-7 26 Sep 04:14:08 04:21:33 35° 99° (E) 04:28:56 29.400- 29.500
RS-15 26 Sep 04:14:36 04:23:53 23° 37° (NE) 04:33:00 29.354- 29.394
Oscar 19 26 Sep 04:21:39 04:23:24 12° 296° (WNW) 04:25:10 437.125/150
KKS-1 26 Sep 04:27:07 04:31:29 57° 75° (ENE) 04:35:51 437.445
SRMSAT 26 Sep 04:28:40 04:32:15 16° 193° (SSW) 04:35:49 437.500
AIST 2 26 Sep 04:29:42 04:33:44 66° 116° (ESE) 04:37:49 435.215
CUBESAT XI-V 26 Sep 05:00:16 05:03:58 23° 70° (ENE) 05:07:41 437.345
YUBILEINY 26 Sep 05:00:28 05:08:34 41° 283° (WNW) 05:16:42 435.215
PCSat 26 Sep 05:00:58 05:06:14 56° 111° (ESE) 05:11:32 145.827
Gurwin Techsat 1B 26 Sep 05:02:20 05:03:42 11° 297° (WNW) 05:05:04 435.225
STARS 26 Sep 05:06:46 05:11:09 76° 76° (ENE) 05:15:32 437.465
ITAMSAT 1 26 Sep 05:07:25 05:12:06 34° 289° (WNW) 05:16:47 435.822/435.867
Cosmos 2504 26 Sep 05:19:30 05:27:04 73° 277° (W) 05:34:18 435.465 / 435.565
MOZHAYETS 4 26 Sep 05:23:56 05:27:17 20° 265° (W) 05:30:39
HORYU 2 26 Sep 05:43:39 05:47:09 23° 96° (E) 05:50:40 437.375
ISS 26 Sep 05:47:32 05:50:24 28° 230° (SW) 05:53:17 145.825
AO-7 26 Sep 06:06:36 06:14:16 44° 295° (WNW) 06:21:56 29.400- 29.500
AIST 2 26 Sep 06:12:16 06:12:37 10° 312° (NW) 06:12:59 435.215
CUSAT 1 26 Sep 06:24:40 06:31:26 33° 72° (ENE) 06:37:13 437.405
RS-15 26 Sep 06:26:10 06:38:38 80° 62° (ENE) 06:50:39 29.354- 29.394
AO-85 26 Sep 06:26:44 06:28:45 13° 49° (NE) 06:30:42 145.980
AIST 1 26 Sep 06:29:17 06:33:34 53° 278° (W) 06:37:53
BRITE-PL 26 Sep 06:34:40 06:39:16 47° 98° (E) 06:43:31 437.365/2234.400
GOMX 1 26 Sep 06:35:59 06:38:48 17° 94° (E) 06:41:30 467.674
CUBESAT XI-V 26 Sep 06:37:12 06:41:09 27° 264° (W) 06:45:10 437.345
NOAA 15 26 Sep 06:42:19 06:46:41 26° 97° (E) 06:50:59 137.62
PCSat 26 Sep 06:46:23 06:49:57 18° 307° (NW) 06:53:32 145.827
STRAND 1 26 Sep 06:50:03 06:53:12 17° 66° (ENE) 06:56:22 437.568
Cubesat XI-IV 26 Sep 06:50:50 06:55:12 25° 96° (E) 06:59:33 437.490
CUTE-I 26 Sep 06:51:38 06:56:04 26° 97° (E) 07:00:28 437.470
DOVE 4 26 Sep 07:08:12 07:10:33 15° 94° (E) 07:12:52 437.250
NOAA 18 26 Sep 07:14:42 07:19:39 34° 99° (E) 07:24:35 137.9125
HORYU 2 26 Sep 07:19:57 07:23:36 25° 289° (WNW) 07:27:15 437.375
DANDE 26 Sep 07:33:36 07:41:48 54° 78° (ENE) 07:49:19 436.750
LilacSat-2 26 Sep 07:38:31 07:42:21 79° 283° (WNW) 07:46:12 437.200
AO-85 26 Sep 08:05:37 08:09:24 41° 247° (WSW) 08:13:01 145.980
CUSAT 1 26 Sep 08:06:32 08:13:25 38° 272° (W) 08:19:14 437.405
O/OREOS (USA 219) 26 Sep 08:08:36 08:13:08 86° 108° (ESE) 08:17:43 437.305
GOMX 1 26 Sep 08:13:09 08:16:57 29° 288° (WNW) 08:20:36 467.674
BRITE-PL 26 Sep 08:14:59 08:17:11 13° 295° (WNW) 08:19:18 437.365/2234.400
NOAA 15 26 Sep 08:21:46 08:26:23 31° 290° (WNW) 08:30:58 137.62
STRAND 1 26 Sep 08:27:05 08:31:57 46° 260° (W) 08:36:51 437.568
Cubesat XI-IV 26 Sep 08:30:30 08:35:13 33° 290° (WNW) 08:39:56 437.490
CUTE-I 26 Sep 08:31:21 08:36:02 32° 290° (WNW) 08:40:42 437.470
CINEMA 3 26 Sep 08:33:37 08:37:30 37° 99° (E) 08:41:27 145.822/145.860
Cosmos 2499 26 Sep 08:38:19 08:43:45 23° 86° (E) 08:49:03 435.465 / 435.565
RS-15 26 Sep 08:40:56 08:49:40 24° 259° (W) 08:58:16 29.354- 29.394
DOVE 4 26 Sep 08:44:38 08:48:19 31° 288° (WNW) 08:51:59 437.250
PRISM 26 Sep 08:55:30 08:59:03 28° 72° (ENE) 09:02:38 437.425
NOAA 18 26 Sep 08:55:42 09:00:05 25° 292° (WNW) 09:04:28 137.9125
COMPASS 1 26 Sep 09:05:27 09:09:06 28° 97° (E) 09:12:43 437.405
HO-68 26 Sep 09:14:36 09:21:46 75° 104° (ESE) 09:28:54 435.675
ZACube-1 26 Sep 09:17:01 09:18:03 11° 93° (E) 09:19:06 437.345
DANDE 26 Sep 09:17:10 09:24:03 29° 274° (W) 09:30:28 436.750
Oscar 11 26 Sep 09:19:01 09:20:01 11° 92° (E) 09:21:01 145.826/435.025
GONETS M04 26 Sep 09:21:20 09:30:02 67° 92° (E) 09:38:47
CUTE 1.7 + AOD 2 26 Sep 09:24:34 09:28:51 69° 284° (WNW) 09:33:06 437.475
CANX-2 26 Sep 09:25:28 09:29:41 57° 285° (WNW) 09:33:53 2200.000
SEEDS 26 Sep 09:29:42 09:34:00 89° 272° (W) 09:38:14 437.485
CUBEBUG 2 26 Sep 09:54:09 09:58:28 88° 103° (ESE) 10:02:53 437.445
AAUSAT CUBESAT 2 26 Sep 09:58:05 10:02:17 79° 282° (WNW) 10:06:27 437.432
DELFI C3 26 Sep 10:01:50 10:03:29 12° 93° (E) 10:05:08 145.870
FUNcube-1 26 Sep 10:09:23 10:13:34 46° 100° (E) 10:17:49 145.935
CINEMA 3 26 Sep 10:12:13 10:14:18 14° 291° (WNW) 10:16:26 145.822/145.860
UWE-3 26 Sep 10:16:25 10:20:44 79° 282° (WNW) 10:25:10 435.000/436.395/437.385
UNISAT 6 26 Sep 10:21:57 10:25:44 31° 73° (ENE) 10:29:30 437.425
Cosmos 2499 26 Sep 10:29:28 10:36:23 47° 280° (W) 10:43:09 435.465 / 435.565
PRISM 26 Sep 10:31:29 10:34:19 18° 265° (W) 10:37:10 437.425
COMPASS 1 26 Sep 10:41:30 10:44:24 18° 290° (WNW) 10:47:17 437.405
BEESAT 2 26 Sep 10:49:52 10:52:09 15° 52° (NE) 10:54:25 435.950
ZACube-1 26 Sep 10:50:19 10:54:30 50° 285° (WNW) 10:58:47 437.345
Oscar 11 26 Sep 10:52:08 10:56:21 49° 285° (WNW) 11:00:33 145.826/435.025
PHONESAT 2.4 26 Sep 10:54:37 10:57:11 28° 146° (SE) 10:59:45 2401.200-2431.200
ANTELSAT 26 Sep 10:56:51 11:01:10 86° 73° (ENE) 11:05:25 437.575/2403.000
HO-68 26 Sep 11:04:18 11:08:40 18° 300° (WNW) 11:13:03 435.675
JAS-2 26 Sep 11:05:46 11:09:11 15° 59° (ENE) 11:12:48 435.910
QB50P2 26 Sep 11:17:01 11:19:44 17° 69° (ENE) 11:22:25 145.880/145.840
TIGRISAT 26 Sep 11:18:04 11:22:15 54° 259° (W) 11:26:26 435.000
POLYITAN 1 26 Sep 11:19:16 11:21:57 17° 69° (ENE) 11:24:39 437.675
GONETS M04 26 Sep 11:21:03 11:27:27 22° 289° (WNW) 11:33:54
HUMSAT D 26 Sep 11:27:15 11:31:30 75° 102° (ESE) 11:35:47 437.325/437.525
BEESAT 3 26 Sep 11:34:29 11:38:27 79° 243° (WSW) 11:42:24 437.485
DELFI C3 26 Sep 11:34:43 11:38:25 36° 286° (WNW) 11:42:05 145.870
ESTCUBE 1 26 Sep 11:39:23 11:41:20 13° 93° (E) 11:43:17 437.505/2401.250
FUNcube-1 26 Sep 11:47:33 11:49:24 13° 292° (WNW) 11:51:14 145.935
CUBEBUG 1 26 Sep 11:56:19 11:57:35 11° 93° (E) 11:58:52 437.445
QB50P1 26 Sep 11:58:28 12:02:32 50° 75° (ENE) 12:06:36 145.935-145.965
DUCHIFAT 1 26 Sep 11:58:31 12:02:28 43° 74° (ENE) 12:06:26 145.980
UNISAT 6 26 Sep 11:59:46 12:02:28 16° 265° (W) 12:05:10 437.425
BUGSAT 1 26 Sep 12:09:24 12:12:34 21° 71° (ENE) 12:15:41 437.445
POPSAT HIP 1 26 Sep 12:11:40 12:15:51 74° 76° (ENE) 12:20:03 437.405
BEESAT 2 26 Sep 12:26:22 12:30:07 39° 246° (WSW) 12:33:51 435.950
NANOSAT C BR1 26 Sep 12:29:18 12:33:28 68° 259° (WSW) 12:37:39 145.865
PHONESAT 2.4 26 Sep 12:30:28 12:33:14 37° 340° (NNW) 12:36:01 2401.200-2431.200
AISAT 26 Sep 12:37:27 12:41:18 29° 98° (E) 12:45:06 437.250
SPROUT 26 Sep 12:44:20 12:47:08 17° 95° (E) 12:49:57 437.525
JAS-2 26 Sep 12:46:58 12:53:05 80° 256° (WSW) 13:00:08 435.910
QB50P2 26 Sep 12:51:31 12:55:15 31° 262° (W) 12:58:59 145.880/145.840
POLYITAN 1 26 Sep 12:53:46 12:57:28 30° 262° (W) 13:01:12 437.675
UKube-1 26 Sep 12:54:34 12:57:42 20° 96° (E) 13:00:50 .
AIST 2 26 Sep 12:57:01 12:58:48 12° 50° (NE) 13:00:34 435.215
M-CUBED/EXP-1 PRIME 26 Sep 13:02:13 13:05:00 26° 103° (ESE) 13:07:48 437.505
ESTCUBE 1 26 Sep 13:13:59 13:18:19 46° 286° (WNW) 13:22:37 437.505/2401.250
DX 1 26 Sep 13:18:48 13:23:03 53° 101° (E) 13:27:16 434.975-435.025
VELOX 1 26 Sep 13:20:47 13:25:12 84° 283° (WNW) 13:29:35 145.980
YUBILEINY 26 Sep 13:22:55 13:26:09 12° 66° (ENE) 13:29:22 435.215
CUBEBUG 1 26 Sep 13:29:54 13:34:04 46° 286° (WNW) 13:38:11 437.445
50 SAT 26 Sep 13:35:53 13:39:23 43° 285° (WNW) 13:42:50 437.505
DUCHIFAT 1 26 Sep 13:36:58 13:38:19 11° 267° (W) 13:39:39 145.980
BUGSAT 1 26 Sep 13:44:31 13:47:47 22° 263° (W) 13:51:02 437.445
Oscar 19 26 Sep 13:51:40 13:56:46 62° 74° (ENE) 14:01:54 437.125/150
PCSat 26 Sep 13:54:30 13:58:11 18° 53° (NE) 14:01:50 145.827
AUBIESAT-1 26 Sep 14:00:27 14:03:38 45° 289° (WNW) 14:06:50 437.475
PHONESAT 2.4 26 Sep 14:07:47 14:09:51 17° 356° (N) 14:11:56 2401.200-2431.200
TISAT 1 26 Sep 14:10:14 14:13:58 31° 98° (E) 14:17:41 437.305
AISAT 26 Sep 14:14:26 14:17:31 19° 291° (WNW) 14:20:35 437.250
SPROUT 26 Sep 14:19:22 14:23:04 30° 288° (WNW) 14:26:46 437.525
UKube-1 26 Sep 14:30:03 14:33:41 27° 289° (WNW) 14:37:18 .
AIST 2 26 Sep 14:33:28 14:37:35 54° 245° (WSW) 14:41:40 435.215
Gurwin Techsat 1B 26 Sep 14:35:31 14:40:49 77° 74° (ENE) 14:46:08 435.225
M-CUBED/EXP-1 PRIME 26 Sep 14:38:19 14:39:17 11° 295° (WNW) 14:40:16 437.505
ITAMSAT 1 26 Sep 14:42:24 14:46:19 22° 68° (ENE) 14:50:16 435.822/435.867
SO-50 26 Sep 14:55:16 14:58:19 17° 109° (ESE) 15:01:21 436.795
DX 1 26 Sep 14:57:41 14:58:43 11° 294° (WNW) 14:59:44 434.975-435.025
Cosmos 2491 26 Sep 15:04:36 15:12:41 43° 88° (E) 15:20:49 435.465 / 435.565
AO-7 26 Sep 15:08:26 15:15:36 34° 63° (ENE) 15:22:45 29.400- 29.500
ITUPSAT 1 26 Sep 15:14:29 15:18:42 30° 98° (E) 15:22:53 437.325
YUBILEINY 26 Sep 15:15:29 15:24:13 82° 84° (E) 15:32:54 435.215
Cosmos 2504 26 Sep 15:17:01 15:23:22 29° 76° (ENE) 15:30:03 435.465 / 435.565
SWISSCUBE 26 Sep 15:28:10 15:32:50 50° 100° (E) 15:37:28 437.505
Oscar 19 26 Sep 15:34:28 15:36:24 12° 268° (W) 15:38:21 437.125/150
PCSat 26 Sep 15:36:37 15:41:52 53° 249° (WSW) 15:47:06 145.827
BEESAT 26 Sep 15:41:16 15:46:01 63° 101° (ESE) 15:50:45 436.000
PHONESAT 2.4 26 Sep 15:44:10 15:46:36 23° 13° (NNE) 15:49:03 2401.200-2431.200
TISAT 1 26 Sep 15:46:46 15:49:19 16° 291° (WNW) 15:51:52 437.305
ITAMSAT 1 26 Sep 16:20:51 16:25:32 35° 262° (W) 16:30:15 435.822/435.867
KKS-1 26 Sep 16:23:56 16:26:35 15° 95° (E) 16:29:13 437.445
SO-50 26 Sep 16:33:48 16:38:25 44° 302° (WNW) 16:43:02 436.795
HORYU 2 26 Sep 16:38:56 16:40:46 12° 66° (ENE) 16:42:35 437.375
AIST 1 26 Sep 16:41:41 16:45:02 22° 77° (ENE) 16:48:22
ITUPSAT 1 26 Sep 16:52:36 16:56:19 23° 291° (WNW) 17:00:02 437.325
AO-7 26 Sep 17:00:07 17:08:01 47° 258° (WSW) 17:15:58 29.400- 29.500
STARS 26 Sep 17:01:36 17:04:44 19° 96° (E) 17:07:53 437.465
Cosmos 2491 26 Sep 17:01:46 17:09:30 34° 285° (WNW) 17:17:20 435.465 / 435.565
SWISSCUBE 26 Sep 17:07:40 17:10:08 14° 294° (WNW) 17:12:37 437.505
Cosmos 2504 26 Sep 17:09:46 17:16:44 43° 270° (W) 17:24:11 435.465 / 435.565
YUBILEINY 26 Sep 17:15:11 17:19:50 16° 280° (W) 17:24:30 435.215
PHONESAT 2.4 26 Sep 17:19:59 17:22:57 81° 208° (SSW) 17:25:55 2401.200-2431.200
BEESAT 26 Sep 17:21:45 17:23:12 11° 295° (WNW) 17:24:40 436.000
MOZHAYETS 4 26 Sep 17:22:02 17:26:37 61° 285° (WNW) 17:31:11
GOMX 1 26 Sep 17:39:13 17:42:24 16° 68° (ENE) 17:45:32 467.674
BRITE-PL 26 Sep 17:39:21 17:44:34 39° 72° (ENE) 17:49:47 437.365/2234.400
NOAA 15 26 Sep 17:57:58 18:02:20 27° 69° (ENE) 18:06:43 137.62
KKS-1 26 Sep 17:59:10 18:03:13 36° 287° (WNW) 18:07:14 437.445
Cubesat XI-IV 26 Sep 18:08:31 18:12:53 27° 69° (ENE) 18:17:16 437.490
CUTE-I 26 Sep 18:09:08 18:13:33 27° 69° (ENE) 18:17:57 437.470
DOVE 4 26 Sep 18:09:49 18:11:51 12° 67° (ENE) 18:13:49 437.250
HORYU 2 26 Sep 18:12:37 18:16:51 47° 260° (W) 18:21:07 437.375
LilacSat-2 26 Sep 18:16:28 18:19:30 24° 72° (ENE) 18:22:34 437.200
AIST 1 26 Sep 18:19:14 18:22:28 21° 271° (W) 18:25:40
O/OREOS (USA 219) 26 Sep 18:23:13 18:27:50 76° 71° (ENE) 18:32:24 437.305
NOAA 18 26 Sep 18:36:26 18:41:34 42° 71° (ENE) 18:46:41 137.9125
STARS 26 Sep 18:37:20 18:41:03 28° 289° (WNW) 18:44:46 437.465
CUBESAT XI-V 26 Sep 18:37:30 18:42:11 77° 284° (WNW) 18:46:50 437.345
RS-15 26 Sep 18:37:39 18:43:14 15° 97° (E) 18:48:55 29.354- 29.394
GOMX 1 26 Sep 19:14:40 19:20:00 55° 260° (W) 19:25:12 467.674
BRITE-PL 26 Sep 19:18:31 19:23:01 24° 265° (W) 19:27:31 437.365/2234.400
CUSAT 1 26 Sep 19:19:40 19:24:50 36° 87° (E) 19:31:11 437.405
CINEMA 3 26 Sep 19:31:17 19:34:42 21° 71° (ENE) 19:38:02 145.822/145.860
NOAA 15 26 Sep 19:37:19 19:41:56 30° 262° (W) 19:46:35 137.62
GONETS M04 26 Sep 19:38:30 19:45:32 26° 73° (ENE) 19:52:29
HO-68 26 Sep 19:38:32 19:44:52 35° 66° (ENE) 19:51:10 435.675
DOVE 4 26 Sep 19:43:57 19:49:02 62° 259° (W) 19:53:54 437.250
Cubesat XI-IV 26 Sep 19:48:10 19:52:47 30° 263° (W) 19:57:26 437.490
CUTE-I 26 Sep 19:48:52 19:53:25 29° 263° (W) 19:58:01 437.470
LilacSat-2 26 Sep 19:51:21 19:53:45 16° 265° (W) 19:56:09 437.200
COMPASS 1 26 Sep 19:54:04 19:55:11 11° 67° (ENE) 19:56:17 437.405
JUGNU 26 Sep 20:09:00 20:11:30 13° 164° (SSE) 20:13:59 437.505
CUTE 1.7 + AOD 2 26 Sep 20:12:27 20:16:27 43° 74° (ENE) 20:20:28 437.475
CANX-2 26 Sep 20:13:17 20:17:23 53° 75° (ENE) 20:21:31 2200.000
SEEDS 26 Sep 20:16:54 20:20:39 32° 73° (ENE) 20:24:25 437.485
NOAA 18 26 Sep 20:18:24 20:22:19 20° 265° (W) 20:26:12 137.9125
Cosmos 2499 26 Sep 20:24:14 20:31:27 44° 79° (E) 20:39:10 435.465 / 435.565
AO-85 26 Sep 20:35:42 20:39:01 17° 109° (ESE) 20:42:15 145.980
DANDE 26 Sep 20:36:40 20:41:06 61° 93° (E) 20:47:06 436.750
STRAND 1 26 Sep 20:41:52 20:47:03 87° 104° (ESE) 20:52:13 437.568
RS-15 26 Sep 20:42:12 20:53:38 82° 115° (ESE) 21:05:45 29.354- 29.394
AAUSAT CUBESAT 2 26 Sep 20:43:40 20:47:26 35° 73° (ENE) 20:51:13 437.432
ISS 26 Sep 20:47:25 20:50:38 76° 136° (SE) 20:53:54 145.825
CUBEBUG 2 26 Sep 20:47:55 20:51:52 39° 74° (ENE) 20:55:45 437.445
FUNcube-1 26 Sep 21:01:26 21:04:23 19° 70° (ENE) 21:07:20 145.935
CUSAT 1 26 Sep 21:01:47 21:06:52 30° 290° (WNW) 21:13:00 437.405
CINEMA 3 26 Sep 21:07:47 21:11:40 27° 263° (W) 21:15:25 145.822/145.860
UWE-3 26 Sep 21:08:58 21:12:57 44° 75° (ENE) 21:16:54 435.000/436.395/437.385
HO-68 26 Sep 21:25:53 21:32:24 37° 261° (W) 21:38:56 435.675
COMPASS 1 26 Sep 21:26:14 21:30:14 47° 261° (W) 21:34:18 437.405
GONETS M04 26 Sep 21:34:11 21:42:42 57° 270° (W) 21:51:09
ZACube-1 26 Sep 21:41:20 21:45:27 68° 76° (ENE) 21:49:34 437.345
Oscar 11 26 Sep 21:41:48 21:46:04 68° 76° (ENE) 21:50:22 145.826/435.025
CUTE 1.7 + AOD 2 26 Sep 21:51:04 21:52:27 11° 267° (W) 21:53:50 437.475
SEEDS 26 Sep 21:53:56 21:56:23 15° 266° (W) 21:58:51 437.485
JUGNU 26 Sep 21:55:30 21:59:52 21° 173° (S) 22:04:13 437.505
AO-85 26 Sep 22:14:01 22:19:09 51° 300° (WNW) 22:24:00 145.980
HUMSAT D 26 Sep 22:14:24 22:17:48 26° 72° (ENE) 22:21:14 437.325/437.525
DELFI C3 26 Sep 22:15:15 22:19:11 62° 76° (ENE) 22:23:09 145.870
PRISM 26 Sep 22:15:57 22:20:06 88° 103° (ESE) 22:24:11 437.425
Cosmos 2499 26 Sep 22:17:50 22:24:15 30° 273° (W) 22:31:03 435.465 / 435.565
AAUSAT CUBESAT 2 26 Sep 22:20:48 22:22:58 14° 266° (W) 22:25:08 437.432
DANDE 26 Sep 22:22:35 22:24:53 13° 298° (WNW) 22:27:24 436.750
ISS 26 Sep 22:26:20 22:27:29 11° 330° (NNW) 22:28:38 145.825
CUBEBUG 2 26 Sep 22:26:46 22:28:36 13° 266° (W) 22:30:24 437.445
FUNcube-1 26 Sep 22:37:01 22:40:27 25° 263° (W) 22:43:52 145.935
UWE-3 26 Sep 22:48:36 22:49:35 11° 267° (W) 22:50:32 435.000/436.395/437.385
SRMSAT 26 Sep 22:50:35 22:53:38 14° 165° (SSE) 22:56:42 437.500
ANTELSAT 26 Sep 22:53:15 22:56:55 25° 97° (E) 23:00:39 437.575/2403.000
RS-15 26 Sep 22:57:52 23:07:31 29° 318° (NW) 23:17:36 29.354- 29.394
TIGRISAT 26 Sep 23:13:43 23:17:54 41° 99° (E) 23:22:10 435.000
AISAT 26 Sep 23:31:18 23:34:02 16° 68° (ENE) 23:36:45 437.250
JUGNU 26 Sep 23:43:43 23:48:17 23° 183° (S) 23:52:49 437.505
M-CUBED/EXP-1 PRIME 26 Sep 23:44:15 23:47:26 21° 68° (ENE) 23:50:27 437.505
QB50P1 26 Sep 23:49:51 23:51:18 12° 93° (E) 23:52:46 145.935-145.965
HUMSAT D 26 Sep 23:50:38 23:53:23 17° 265° (W) 23:56:09 437.325/437.525
UNISAT 6 26 Sep 23:53:48 23:58:08 58° 285° (WNW) 00:02:35 437.425
POPSAT HIP 1 27 Sep 00:02:04 00:04:48 17° 95° (E) 00:07:32 437.405
JAS-2 27 Sep 00:02:30 00:08:20 23° 92° (E) 00:13:55 435.910
50 SAT 27 Sep 00:07:54 00:11:10 33° 74° (ENE) 00:14:29 437.505
ESTCUBE 1 27 Sep 00:08:18 00:12:49 90° 77° (ENE) 00:17:23 437.505/2401.250
DX 1 27 Sep 00:10:07 00:13:44 26° 71° (ENE) 00:17:21 434.975-435.025
VELOX 1 27 Sep 00:13:16 00:17:32 47° 74° (ENE) 00:21:48 145.980
NANOSAT C BR1 27 Sep 00:18:38 00:22:08 25° 97° (E) 00:25:38 145.865
CUBEBUG 1 27 Sep 00:20:36 00:25:01 78° 77° (ENE) 00:29:26 437.445
ANTELSAT 27 Sep 00:30:00 00:33:28 23° 289° (WNW) 00:37:00 437.575/2403.000
SRMSAT 27 Sep 00:37:41 00:42:10 22° 174° (S) 00:46:38 437.500
QB50P2 27 Sep 00:40:19 00:44:29 57° 101° (E) 00:48:38 145.880/145.840
AUBIESAT-1 27 Sep 00:41:13 00:45:26 87° 73° (ENE) 00:49:22 437.475
POLYITAN 1 27 Sep 00:42:32 00:46:41 57° 100° (E) 00:50:51 437.675
TIGRISAT 27 Sep 00:51:53 00:54:14 14° 292° (WNW) 00:56:35 435.000
TISAT 1 27 Sep 00:58:52 01:01:00 14° 68° (ENE) 01:03:08 437.305
AISAT 27 Sep 01:06:02 01:10:09 37° 261° (W) 01:14:17 437.250
SPROUT 27 Sep 01:07:25 01:11:40 74° 259° (W) 01:15:56 437.525
SO-50 27 Sep 01:09:37 01:13:58 45° 58° (ENE) 01:18:13 436.795
M-CUBED/EXP-1 PRIME 27 Sep 01:18:11 01:21:46 25° 257° (WSW) 01:25:10 437.505
UKube-1 27 Sep 01:19:04 01:23:20 59° 259° (W) 01:27:36 .
BEESAT 3 27 Sep 01:20:23 01:24:09 51° 115° (ESE) 01:27:58 437.485
DUCHIFAT 1 27 Sep 01:22:24 01:26:28 51° 285° (WNW) 01:30:31 145.980
Cosmos 2491 27 Sep 01:22:34 01:27:33 16° 68° (ENE) 01:32:29 435.465 / 435.565
QB50P1 27 Sep 01:23:15 01:27:14 42° 286° (WNW) 01:31:12 145.935-145.965
RS-15 27 Sep 01:23:53 01:26:24 11° 353° (N) 01:28:56 29.354- 29.394
BUGSAT 1 27 Sep 01:29:43 01:33:43 70° 100° (E) 01:37:44 437.445
JUGNU 27 Sep 01:33:05 01:36:40 17° 193° (SSW) 01:40:14 437.505
POPSAT HIP 1 27 Sep 01:36:54 01:40:35 30° 288° (WNW) 01:44:15 437.405
50 SAT 27 Sep 01:44:10 01:44:46 10° 267° (W) 01:45:22 437.505
JAS-2 27 Sep 01:45:58 01:53:43 62° 287° (WNW) 02:01:01 435.910
DX 1 27 Sep 01:46:29 01:49:49 21° 264° (W) 01:53:11 434.975-435.025
VELOX 1 27 Sep 01:52:27 01:54:10 12° 267° (W) 01:55:53 145.980
NANOSAT C BR1 27 Sep 01:54:37 01:57:40 20° 290° (WNW) 02:00:42 145.865
Oscar 19 27 Sep 02:08:19 02:12:52 31° 98° (E) 02:17:23 437.125/150
BEESAT 2 27 Sep 02:13:18 02:17:13 75° 298° (WNW) 02:21:11 435.950
ITUPSAT 1 27 Sep 02:17:19 02:20:52 21° 69° (ENE) 02:24:26 437.325
YUBILEINY 27 Sep 02:17:53 02:23:07 18° 81° (E) 02:28:20 435.215
